Tracking 20945 objects as of 8-Jul-2020
HD Live streaming from Space Station
objects crossing your sky now

COSMOS 312

Track COSMOS 312 now!
10-day predictions
COSMOS 312 is classified as:


NORAD ID: 4254
Int'l Code: 1969-103A
Perigee: 1,148.1 km
Apogee: 1,181.4 km
Inclination: 74.0 °
Period: 108.5 minutes
Semi major axis: 7535 km
RCS: 3.057 m2 (large)
Launch date: November 24, 1969
Source: Commonwealth of Independent States (former USSR) (CIS)
Launch site: PLESETSK MISSILE AND SPACE COMPLEX (PKMTR)
aabbcc
Your satellite tracking list
Your tracking list is empty




NASA's NSSDC Master Catalog

Two Line Element Set (TLE):
1  4254U 69103A   20189.94347031 -.00000007  00000-0  27145-4 0  9996
2  4254  74.0200 153.7206 0022106 104.2456 310.5953 13.27127235452142
Source of the keplerian elements: AFSPC